KC5NAM Weather Reports


Display with metric or nautical units.
time (UTC)temp
F
wind
direction
speed
MPH
gust
MPH
rain 1hr
in
rain 24hr
in
rain mn
in
humidity
%
barometer
mb
20260906044034 84 191 5.0 11.0 0.00 0.00 0.00 73 1017.8
20260906043534 84 199 5.0 11.0 0.00 0.00 0.00 72 1017.8
20260906043054 84 155 3.0 14.0 0.00 0.00 0.00 72 1017.7
20260906042534 84 153 5.0 14.0 0.00 0.00 0.00 71 1017.7
20260906042035 85 140 5.0 10.0 0.00 0.00 0.00 71 1017.7
20260906041558 85 163 4.0 10.0 0.00 0.00 0.00 70 1017.8
20260906041034 85 149 4.0 12.0 0.00 0.00 0.00 70 1017.7
20260906040535 85 167 4.0 12.0 0.00 0.00 0.00 70 1017.7
20260906040055 85 159 3.0 11.0 0.00 0.00 0.00 69 1017.7
20260906035534 85 360 5.0 12.0 0.00 0.00 0.00 69 1017.7
20260906035034 85 360 5.0 12.0 0.00 0.00 0.00 69 1017.7
20260906034559 85 133 4.0 11.0 0.00 0.00 0.00 68 1017.6
20260906034034 85 148 4.0 12.0 0.00 0.00 0.00 68 1017.5
20260906033534 86 360 5.0 12.0 0.00 0.00 0.00 68 1017.4
20260906033056 86 169 4.0 13.0 0.00 0.00 0.00 67 1017.3
20260906032535 86 153 5.0 13.0 0.00 0.00 0.00 65 1017.2
20260906032035 86 127 5.0 14.0 0.00 0.00 0.00 65 1017.2
20260906031552 86 153 7.0 15.0 0.00 0.00 0.00 64 1017.1
20260906031035 86 151 6.0 15.0 0.00 0.00 0.00 64 1016.9
20260906030534 86 100 5.0 12.0 0.00 0.00 0.00 63 1016.9
20260906030053 86 149 4.0 10.0 0.00 0.00 0.00 63 1016.8
20260906025534 87 163 3.0 11.0 0.00 0.00 0.00 63 1016.7
20260906025036 87 135 3.0 12.0 0.00 0.00 0.00 63 1016.8
20260906024547 87 143 4.0 12.0 0.00 0.00 0.00 63 1016.4
20260906024035 87 136 4.0 12.0 0.00 0.00 0.00 63 1016.3
20260906023535 87 144 5.0 11.0 0.00 0.00 0.00 62 1016.1
20260906023055 88 360 2.0 9.0 0.00 0.00 0.00 61 1016.1
20260906022534 88 160 3.0 10.0 0.00 0.00 0.00 61 1016.0
20260906022035 88 360 4.0 10.0 0.00 0.00 0.00 60 1015.8
20260906021559 88 101 2.0 9.0 0.00 0.00 0.00 59 1015.7
20260906021034 89 360 3.0 9.0 0.00 0.00 0.00 59 1015.7
20260906020535 89 118 2.0 9.0 0.00 0.00 0.00 58 1015.7
20260906020049 89 100 4.0 11.0 0.00 0.00 0.00 57 1015.5
20260906015535 90 360 5.0 11.0 0.00 0.00 0.00 56 1015.5
20260906015035 90 171 4.0 14.0 0.00 0.00 0.00 55 1015.4
20260906014549 90 101 5.0 14.0 0.00 0.00 0.00 55 1015.4
20260906014034 91 119 5.0 13.0 0.00 0.00 0.00 54 1015.4
20260906013537 91 163 4.0 12.0 0.00 0.00 0.00 54 1015.4
20260906013054 91 115 5.0 15.0 0.00 0.00 0.00 54 1015.1
20260906012534 92 82 5.0 16.0 0.00 0.00 0.00 53 1015.0
20260906012034 92 115 5.0 16.0 0.00 0.00 0.00 52 1015.0
20260906011553 93 150 7.0 12.0 0.00 0.00 0.00 49 1014.9
20260906011035 93 360 2.0 8.0 0.00 0.00 0.00 47 1014.8
20260906010534 93 136 1.0 8.0 0.00 0.00 0.00 47 1014.7
20260906010128 94 360 1.0 8.0 0.00 0.00 0.00 46 1014.7
20260906005534 94 0 1.0 8.0 0.00 0.00 0.00 46 1014.7
20260906005038 94 136 3.0 8.0 0.00 0.00 0.00 46 1014.7
20260906004611 95 360 1.0 9.0 0.00 0.00 0.00 45 1014.6
20260906004035 95 0 2.0 9.0 0.00 0.00 0.00 45 1014.6
20260906003535 95 0 2.0 9.0 0.00 0.00 0.00 44 1014.6
20260906003052 96 77 2.0 9.0 0.00 0.00 0.00 44 1014.6
20260906002534 97 0 3.0 13.0 0.00 0.00 0.00 43 1014.6
20260906002035 97 134 4.0 13.0 0.00 0.00 0.00 42 1014.6
20260906001600 98 360 2.0 10.0 0.00 0.00 0.00 37 1014.6
20260906001035 98 178 1.0 5.0 0.00 0.00 0.00 33 1014.6
20260906000535 98 0 0.0 8.0 0.00 0.00 0.00 33 1014.6
20260906000046 98 0 2.0 8.0 0.00 0.00 0.00 33 1014.6
20260905235535 98 120 2.0 8.0 0.00 0.00 0.00 32 1014.4
20260905235035 98 111 1.0 7.0 0.00 0.00 0.00 34 1014.5
20260905234545 98 100 1.0 6.0 0.00 0.00 0.00 34 1014.3
20260905234034 98 137 1.0 6.0 0.00 0.00 0.00 35 1014.4
20260905233535 98 161 2.0 9.0 0.00 0.00 0.00 37 1014.4
20260905233053 99 360 2.0 10.0 0.00 0.00 0.00 37 1014.5
20260905232534 99 360 4.0 10.0 0.00 0.00 0.00 37 1014.4
20260905232034 99 180 2.0 8.0 0.00 0.00 0.00 38 1014.4
20260905231549 99 360 0.0 5.0 0.00 0.00 0.00 39 1014.5
20260905231033 99 0 0.0 10.0 0.00 0.00 0.00 38 1014.5
20260905230536 100 177 4.0 10.0 0.00 0.00 0.00 38 1014.4
20260905230044 100 74 1.0 8.0 0.00 0.00 0.00 37 1014.3
20260905225535 101 75 2.0 7.0 0.00 0.00 0.00 37 1014.4
20260905225034 100 169 0.0 7.0 0.00 0.00 0.00 36 1014.3
20260905224552 101 92 2.0 8.0 0.00 0.00 0.00 36 1014.3
20260905224034 101 360 2.0 10.0 0.00 0.00 0.00 35 1014.4
20260905223534 101 360 4.0 10.0 0.00 0.00 0.00 35 1014.5
20260905223055 101 360 0.0 7.0 0.00 0.00 0.00 34 1014.5
20260905222534 101 142 0.0 10.0 0.00 0.00 0.00 34 1014.5
20260905222034 101 147 2.0 10.0 0.00 0.00 0.00 34 1014.5
20260905221547 101 125 5.0 10.0 0.00 0.00 0.00 34 1014.6
20260905221035 101 139 2.0 9.0 0.00 0.00 0.00 34 1014.5
20260905220536 102 175 2.0 9.0 0.00 0.00 0.00 33 1014.5
20260905220058 102 78 3.0 9.0 0.00 0.00 0.00 33 1014.5
20260905215536 101 109 2.0 7.0 0.00 0.00 0.00 34 1014.6
20260905215036 102 313 0.0 12.0 0.00 0.00 0.00 34 1014.4
20260905214551 102 0 4.0 12.0 0.00 0.00 0.00 34 1014.5
20260905214034 102 172 6.0 11.0 0.00 0.00 0.00 34 1014.7
20260905213534 102 159 3.0 10.0 0.00 0.00 0.00 33 1014.7
20260905213049 103 69 2.0 10.0 0.00 0.00 0.00 33 1014.7
20260905212537 104 174 2.0 9.0 0.00 0.00 0.00 34 1014.8
20260905212034 103 0 1.0 9.0 0.00 0.00 0.00 34 1014.7
20260905211545 103 151 1.0 9.0 0.00 0.00 0.00 34 1014.9
20260905211035 103 35 3.0 9.0 0.00 0.00 0.00 34 1014.9
20260905210535 103 174 2.0 8.0 0.00 0.00 0.00 35 1014.9
20260905210112 103 103 2.0 10.0 0.00 0.00 0.00 35 1015.0
20260905205534 103 76 3.0 10.0 0.00 0.00 0.00 36 1015.1
20260905205035 103 144 3.0 10.0 0.00 0.00 0.00 37 1015.0
20260905204551 103 0 2.0 9.0 0.00 0.00 0.00 38 1015.2
20260905204034 103 154 3.0 9.0 0.00 0.00 0.00 37 1015.3
20260905203535 103 98 1.0 11.0 0.00 0.00 0.00 38 1015.4
20260905203047 103 94 3.0 12.0 0.00 0.00 0.00 38 1015.5
20260905202533 103 157 4.0 12.0 0.00 0.00 0.00 39 1015.7
20260905202035 102 0 3.0 9.0 0.00 0.00 0.00 38 1015.8
20260905201553 102 162 3.0 11.0 0.00 0.00 0.00 40 1015.9
20260905201034 102 360 5.0 11.0 0.00 0.00 0.00 40 1016.0
20260905200534 103 0 3.0 10.0 0.00 0.00 0.00 39 1016.1
20260905200114 104 360 2.0 10.0 0.00 0.00 0.00 38 1016.2
20260905195534 103 140 2.0 12.0 0.00 0.00 0.00 39 1016.1
20260905195035 103 120 5.0 12.0 0.00 0.00 0.00 39 1016.2
20260905194547 103 71 5.0 11.0 0.00 0.00 0.00 39 1016.3
20260905194034 103 148 0.0 10.0 0.00 0.00 0.00 38 1016.4
20260905193534 103 90 4.0 10.0 0.00 0.00 0.00 38 1016.5
20260905193055 103 0 1.0 9.0 0.00 0.00 0.00 37 1016.5
20260905192535 103 155 2.0 9.0 0.00 0.00 0.00 37 1016.5
20260905192034 103 124 5.0 9.0 0.00 0.00 0.00 36 1016.7
20260905191553 103 153 3.0 8.0 0.00 0.00 0.00 36 1016.8
20260905191035 102 83 2.0 8.0 0.00 0.00 0.00 36 1016.9
20260905190535 102 137 3.0 7.0 0.00 0.00 0.00 36 1017.0
20260905190053 101 216 3.0 7.0 0.00 0.00 0.00 37 1017.1
20260905185535 101 117 3.0 7.0 0.00 0.00 0.00 40 1017.2
20260905185034 101 94 0.0 11.0 0.00 0.00 0.00 41 1017.4
20260905184600 101 5 2.0 11.0 0.00 0.00 0.00 39 1017.5
20260905184037 101 159 3.0 11.0 0.00 0.00 0.00 40 1017.5
20260905183534 100 74 1.0 11.0 0.00 0.00 0.00 40 1017.5
20260905183055 99 130 6.0 11.0 0.00 0.00 0.00 40 1017.6
20260905182539 98 150 1.0 12.0 0.00 0.00 0.00 46 1017.6
20260905182037 99 144 3.0 12.0 0.00 0.00 0.00 46 1017.7
20260905181555 99 168 4.0 8.0 0.00 0.00 0.00 43 1017.8
20260905181034 98 117 3.0 9.0 0.00 0.00 0.00 45 1017.9
20260905180537 97 221 1.0 9.0 0.00 0.00 0.00 45 1018.0
20260905180053 97 148 4.0 11.0 0.00 0.00 0.00 48 1018.1
20260905175533 97 269 5.0 12.0 0.00 0.00 0.00 48 1018.2
20260905175037 98 175 4.0 12.0 0.00 0.00 0.00 48 1018.2
20260905174545 97 171 6.0 12.0 0.00 0.00 0.00 50 1018.3
20260905174039 97 85 0.0 10.0 0.00 0.00 0.00 53 1018.3
20260905173535 97 193 5.0 10.0 0.00 0.00 0.00 51 1018.4
20260905173055 96 163 3.0 8.0 0.00 0.00 0.00 54 1018.4
20260905172536 96 206 1.0 10.0 0.00 0.00 0.00 52 1018.4
20260905172035 96 105 1.0 10.0 0.00 0.00 0.00 54 1018.5
20260905171553 94 84 4.0 10.0 0.00 0.00 0.00 55 1018.6
20260905171034 93 155 2.0 9.0 0.00 0.00 0.00 59 1018.7
20260905170534 93 172 2.0 11.0 0.00 0.00 0.00 59 1018.8
20260905170053 92 139 4.0 11.0 0.00 0.00 0.00 59 1018.9
20260905165534 92 153 6.0 10.0 0.00 0.00 0.00 59 1018.9
20260905165035 92 151 5.0 11.0 0.00 0.00 0.00 60 1019.1
20260905164547 92 161 3.0 11.0 0.00 0.00 0.00 60 1019.1
20260905164035 92 113 5.0 9.0 0.00 0.00 0.00 58 1019.3
20260905163535 92 0 3.0 8.0 0.00 0.00 0.00 61 1019.2
20260905163056 92 0 2.0 10.0 0.00 0.00 0.00 61 1019.2
20260905162535 92 150 4.0 13.0 0.00 0.00 0.00 62 1019.2
20260905162034 92 168 4.0 15.0 0.00 0.00 0.00 61 1019.2
20260905161551 93 183 4.0 15.0 0.00 0.00 0.00 59 1019.2
20260905161035 94 148 2.0 10.0 0.00 0.00 0.00 61 1019.1
20260905160534 94 78 4.0 10.0 0.00 0.00 0.00 61 1019.1
20260905160051 94 157 5.0 10.0 0.00 0.00 0.00 63 1019.2
20260905155534 93 34 4.0 12.0 0.00 0.00 0.00 63 1019.1
20260905155034 92 196 4.0 12.0 0.00 0.00 0.00 65 1019.1
20260905154602 92 79 3.0 9.0 0.00 0.00 0.00 68 1019.1
20260905154035 90 93 2.0 9.0 0.00 0.00 0.00 69 1019.1
20260905153537 89 360 4.0 9.0 0.00 0.00 0.00 72 1019.1
20260905153055 89 141 1.0 8.0 0.00 0.00 0.00 73 1019.1
20260905152535 88 152 3.0 8.0 0.00 0.00 0.00 74 1019.1
20260905152034 87 176 2.0 8.0 0.00 0.00 0.00 76 1019.1
20260905151601 87 156 2.0 8.0 0.00 0.00 0.00 77 1018.9
20260905151034 86 186 3.0 8.0 0.00 0.00 0.00 78 1018.9
20260905150535 86 207 4.0 9.0 0.00 0.00 0.00 78 1019.0
20260905150051 86 151 4.0 9.0 0.00 0.00 0.00 77 1019.0
20260905145535 86 192 3.0 6.0 0.00 0.00 0.00 79 1019.1
20260905145034 86 198 3.0 8.0 0.00 0.00 0.00 79 1019.0
20260905144556 86 132 1.0 8.0 0.00 0.00 0.00 79 1018.9
20260905144034 86 163 3.0 8.0 0.00 0.00 0.00 79 1018.9
20260905143535 86 159 2.0 7.0 0.00 0.00 0.00 80 1018.9
20260905143054 86 132 3.0 7.0 0.00 0.00 0.00 80 1018.9
20260905142535 85 150 2.0 8.0 0.00 0.00 0.00 81 1018.8
20260905142034 85 0 2.0 8.0 0.00 0.00 0.00 82 1018.7
20260905141552 84 76 2.0 6.0 0.00 0.00 0.00 83 1018.7
20260905141034 84 114 2.0 6.0 0.00 0.00 0.00 84 1018.6
20260905140534 84 0 1.0 9.0 0.00 0.00 0.00 84 1018.5
20260905140050 83 0 0.0 9.0 0.00 0.00 0.00 85 1018.5
20260905135534 83 159 0.0 4.0 0.00 0.00 0.00 85 1018.4
20260905135035 83 0 1.0 4.0 0.00 0.00 0.00 86 1018.3
20260905134544 82 0 0.0 3.0 0.00 0.00 0.00 88 1018.2
20260905134037 81 163 0.0 2.0 0.00 0.00 0.00 90 1018.1
20260905133534 81 0 0.0 2.0 0.00 0.00 0.00 90 1018.1
20260905133054 80 0 0.0 1.0 0.00 0.00 0.00 91 1018.1
20260905132534 80 0 0.0 1.0 0.00 0.00 0.00 91 1018.2
20260905132035 80 0 0.0 0.0 0.00 0.00 0.00 92 1018.1
20260905131558 80 0 0.0 0.0 0.00 0.00 0.00 92 1018.1
20260905131034 79 0 0.0 0.0 0.00 0.00 0.00 92 1018.1
20260905130535 79 0 0.0 0.0 0.00 0.00 0.00 92 1018.1
20260905130052 79 0 0.0 1.0 0.00 0.00 0.00 92 1018.0
20260905125534 79 0 0.0 1.0 0.00 0.00 0.00 92 1018.1
20260905125035 79 0 0.0 2.0 0.00 0.00 0.00 93 1018.0
20260905124555 79 0 0.0 3.0 0.00 0.00 0.00 93 1017.8
20260905124032 79 0 0.0 3.0 0.00 0.00 0.00 93 1017.8
20260905123534 79 0 0.0 3.0 0.00 0.00 0.00 93 1017.8
20260905123105 79 96 0.0 2.0 0.00 0.00 0.00 93 1017.7
20260905122535 79 0 0.0 0.0 0.00 0.00 0.00 93 1017.6
20260905122038 79 0 0.0 0.0 0.00 0.00 0.00 93 1017.6
20260905121554 79 0 0.0 0.0 0.00 0.00 0.00 92 1017.6
20260905121035 79 0 0.0 0.0 0.00 0.00 0.00 92 1017.6
20260905120535 79 0 0.0 0.0 0.00 0.00 0.00 92 1017.5
20260905120053 79 0 0.0 0.0 0.00 0.00 0.00 92 1017.6
20260905115535 79 0 0.0 0.0 0.00 0.00 0.00 92 1017.6
20260905115034 79 0 0.0 0.0 0.00 0.00 0.00 91 1017.6
20260905114549 79 0 0.0 0.0 0.00 0.00 0.00 91 1017.7
20260905114034 79 0 0.0 0.0 0.00 0.00 0.00 91 1017.7
20260905113535 79 0 0.0 0.0 0.00 0.00 0.00 91 1017.7
20260905113104 79 0 0.0 0.0 0.00 0.00 0.00 91 1017.6
20260905112535 79 0 0.0 0.0 0.00 0.00 0.00 91 1017.7
20260905112035 79 0 0.0 0.0 0.00 0.00 0.00 91 1017.6
20260905111558 79 0 0.0 0.0 0.00 0.00 0.00 91 1017.6
20260905111035 79 0 0.0 0.0 0.00 0.00 0.00 91 1017.4
20260905110540 79 0 0.0 0.0 0.00 0.00 0.00 91 1017.4
20260905110052 79 0 0.0 0.0 0.00 0.00 0.00 91 1017.4
20260905105535 79 0 0.0 0.0 0.00 0.00 0.00 91 1017.6
20260905105036 80 0 0.0 0.0 0.00 0.00 0.00 91 1017.3
20260905104551 80 0 0.0 0.0 0.00 0.00 0.00 91 1017.3
20260905104035 80 0 0.0 0.0 0.00 0.00 0.00 91 1017.3
20260905103534 80 0 0.0 0.0 0.00 0.00 0.00 91 1017.4
20260905103053 80 0 0.0 0.0 0.00 0.00 0.00 91 1017.3
20260905102537 80 0 0.0 0.0 0.00 0.00 0.00 91 1017.4
20260905102035 80 0 0.0 0.0 0.00 0.00 0.00 90 1017.3
20260905101555 80 0 0.0 0.0 0.00 0.00 0.00 90 1017.3
20260905101034 80 0 0.0 0.0 0.00 0.00 0.00 90 1017.3
20260905100534 80 0 0.0 1.0 0.00 0.00 0.00 90 1017.3
20260905100100 80 0 0.0 1.0 0.00 0.00 0.00 90 1017.3
20260905095534 80 0 0.0 1.0 0.00 0.00 0.00 90 1017.2
20260905095039 80 0 0.0 1.0 0.00 0.00 0.00 90 1017.3
20260905094548 80 0 0.0 1.0 0.00 0.00 0.00 90 1017.3
20260905094035 80 0 0.0 0.0 0.00 0.00 0.00 90 1017.3
20260905093535 80 0 0.0 0.0 0.00 0.00 0.00 90 1017.4
20260905093058 80 0 0.0 0.0 0.00 0.00 0.00 89 1017.4
20260905092534 80 0 0.0 0.0 0.00 0.00 0.00 89 1017.4
20260905092035 80 0 0.0 0.0 0.00 0.00 0.00 89 1017.3
20260905091555 80 0 0.0 0.0 0.00 0.00 0.00 89 1017.4
20260905091036 80 0 0.0 0.0 0.00 0.00 0.00 89 1017.3
20260905090534 80 0 0.0 0.0 0.00 0.00 0.00 89 1017.4
20260905090053 80 0 0.0 0.0 0.00 0.00 0.00 89 1017.3
20260905085535 80 0 0.0 0.0 0.00 0.00 0.00 89 1017.2
20260905085034 80 0 0.0 0.0 0.00 0.00 0.00 89 1017.2
20260905084604 80 0 0.0 0.0 0.00 0.00 0.00 89 1017.2
20260905084034 80 0 0.0 0.0 0.00 0.00 0.00 89 1017.2
20260905083540 80 0 0.0 0.0 0.00 0.00 0.00 88 1017.2
20260905083049 81 0 0.0 1.0 0.00 0.00 0.00 88 1017.3
20260905082535 81 0 0.0 1.0 0.00 0.00 0.00 88 1017.3
20260905082035 81 0 0.0 0.0 0.00 0.00 0.00 88 1017.4
20260905081552 81 0 0.0 1.0 0.00 0.00 0.00 88 1017.4
20260905081035 81 0 0.0 1.0 0.00 0.00 0.00 88 1017.4
20260905080535 81 0 0.0 3.0 0.00 0.00 0.00 88 1017.4
20260905080133 81 0 1.0 4.0 0.00 0.00 0.00 88 1017.4
20260905075536 81 0 0.0 4.0 0.00 0.00 0.00 88 1017.4
20260905075035 81 72 0.0 2.0 0.00 0.00 0.00 88 1017.6
20260905074551 81 0 0.0 2.0 0.00 0.00 0.00 87 1017.5
20260905074037 81 0 0.0 1.0 0.00 0.00 0.00 87 1017.6
20260905073538 81 0 0.0 0.0 0.00 0.00 0.00 87 1017.7
20260905073045 81 0 0.0 0.0 0.00 0.00 0.00 87 1017.7
20260905072540 81 0 0.0 0.0 0.00 0.00 0.00 87 1017.7
20260905072036 81 0 0.0 1.0 0.00 0.00 0.00 87 1017.7
20260905071555 81 0 0.0 3.0 0.00 0.00 0.00 87 1017.8
20260905071036 81 0 0.0 3.0 0.00 0.00 0.00 87 1017.8
20260905070536 81 0 0.0 2.0 0.00 0.00 0.00 87 1017.8
20260905070057 81 76 0.0 6.0 0.00 0.00 0.00 86 1017.9
20260905065539 81 0 0.0 6.0 0.00 0.00 0.00 86 1017.9
20260905065035 81 0 0.0 2.0 0.00 0.00 0.00 86 1017.8
20260905064600 81 0 0.0 2.0 0.00 0.00 0.00 86 1017.9
20260905064035 81 0 0.0 5.0 0.00 0.00 0.00 85 1018.0
20260905063536 81 155 0.0 5.0 0.00 0.00 0.00 85 1017.9
20260905063048 81 155 1.0 4.0 0.00 0.00 0.00 85 1017.8
20260905062535 81 0 1.0 4.0 0.00 0.00 0.00 85 1017.8
20260905062035 82 153 0.0 4.0 0.00 0.00 0.00 85 1017.8
20260905061542 82 0 0.0 4.0 0.00 0.00 0.00 84 1017.9
20260905061035 82 111 0.0 3.0 0.00 0.00 0.00 84 1017.9
20260905060535 82 0 0.0 3.0 0.00 0.00 0.00 84 1017.9
20260905060100 82 0 0.0 3.0 0.00 0.00 0.00 83 1018.0
20260905055538 82 157 0.0 4.0 0.00 0.00 0.00 83 1018.0
20260905055038 82 140 0.0 4.0 0.00 0.00 0.00 83 1017.9
20260905054557 82 0 0.0 8.0 0.00 0.00 0.00 83 1017.9
20260905054035 82 0 1.0 8.0 0.00 0.00 0.00 82 1017.9
20260905053538 82 0 0.0 5.0 0.00 0.00 0.00 82 1017.9
20260905053106 82 155 0.0 6.0 0.00 0.00 0.00 82 1017.9
20260905052538 82 0 1.0 8.0 0.00 0.00 0.00 82 1017.9
20260905052035 82 153 2.0 8.0 0.00 0.00 0.00 81 1017.9
20260905051600 82 0 1.0 8.0 0.00 0.00 0.00 81 1017.9
20260905051035 83 186 1.0 9.0 0.00 0.00 0.00 80 1018.0
20260905050534 83 153 3.0 9.0 0.00 0.00 0.00 80 1018.0
20260905050058 83 171 3.0 8.0 0.00 0.00 0.00 80 1018.0
20260905045535 83 148 3.0 8.0 0.00 0.00 0.00 79 1018.0
20260905045035 83 157 1.0 6.0 0.00 0.00 0.00 79 1018.1
20260905044601 83 360 1.0 8.0 0.00 0.00 0.00 79 1018.1